Location: Delettes
(50.6178°N, 2.2123°E)
Time: 20:31:01
(UTC+00:00)

NOSS 3-2 (C) - Pass Details

Date: 27 February 2020
Orbit: 813 x 1399 km, 63.4° (Epoch: 06 March)

Event Time Altitude Azimuth Distance (km) Brightness Sun altitude
Rises 18:59:36 0° 312° (NW) 3,834 7.5 -15.2°
Reaches altitude 10° 19:02:12 10° 318° (NW) 2,960 6.7 -15.7°
Maximum altitude 19:09:11 53° 34° (NE) 1,472 4.2 -16.8°
Enters shadow 19:13:51 25° 100° (E) 2,337 4.8 -17.5°
